Regional Weather Roundup
Issued by NWS Charleston, SC

Current Version | Previous Version | Graphics & Text | Print | Product List | Glossary On
Versions: 1 2 3 4 5 6 7 8 9 10 11 12 13 14 15 16 17 18 19 20 21 22 23 24 25 26 27 28 29 30 31 32 33 34 35 36 37 38 39 40 41 42 43 44 45 46 47 48 49 50
131 ASUS42 KCHS 230827 RWRCHS Regional Weather Roundup National Weather Service Charleston SC 300 AM EST FRI FEB 23 2018 NOTE: "fair" indicates few or no clouds below 12,000 feet with no significant weather and/or obstructions to visibility. Not all stations are quality controlled. Use data with caution, especially dewpoint observations. SCZ027-030-031-034>040-042>050-230900- ...Southeast South Carolina... CITY SKY/WX TMP DP RH WIND PRES REMARKS N Charleston FAIR 60 59 96 CALM 30.41F Waterfront Prk N/A 63 63 100 CALM 30.27F Mount Pleasant FAIR 57 57 100 CALM 30.41F Johns Island FOG 59 59 100 CALM 30.41F VSB 3/4 Pinopolis N/A 63 63 100 VRB3 30.32F Moncks Corner FAIR 54 54 100 CALM 30.41F Summerville FAIR 55 54 94 CALM 30.41F Beaufort MCAS FAIR 59 59 100 CALM 30.40F Beaufort Arpt FOG 61 61 100 CALM 30.40F VSB 1/2 Hilton Head Is MOCLDY 64 63 94 CALM 30.41F Walterboro FAIR 54 54 100 CALM 30.41F Allendale FAIR 57 57 100 CALM 30.40S ...Southern Midlands and Pee Dee... CITY SKY/WX TMP DP RH WIND PRES REMARKS Georgetown FAIR 54 54 100 CALM 30.43S Kingstree FAIR 54 52 94 CALM 30.41F FOG Orangeburg FAIR 58 57 97 S5 30.41F Barnwell FOG 61 61 100 CALM 30.41S VSB 1 Aiken FAIR 55 55 100 CALM 30.45S FOG Manning FAIR 54 52 94 MISG 30.41S Columbia FAIR 63 62 97 CALM 30.41R Sumter FAIR 58 58 99 CALM 30.40R Florence FAIR 59 58 96 CALM 30.42S FOG Myrtle Beach FAIR 63 61 94 CALM 30.44S VSB 3/4 N Myrtle Beach FOG 62 61 96 CALM 30.42F VSB 1/4 $$ GAZ063-065-086>088-099>101-113>116-118-119-134>141-150-230900- ...Southeast Georgia... CITY SKY/WX TMP DP RH WIND PRES REMARKS Savannah Arpt FOG 57 57 100 CALM 30.40F VSB 1/4 Hunter AAF FAIR 60 58 93 CALM 30.38F Fort Stewart FAIR 56 55 98 CALM 30.38F Statesboro MOCLDY 57 32 39 CALM 30.40F Sylvania FAIR 59 59 100 CALM 30.40F FOG Claxton FOG 57 57 99 CALM 30.40F VSB 1/4 ...CSRA, Central and far Southeast Georgia... CITY SKY/WX TMP DP RH WIND PRES REMARKS Thomson FAIR 60 59 97 SW5 30.45F Augusta-Bush FOG 56 56 100 N3 30.40S VSB 3/4 Augusta-Daniel FAIR 63 61 93 CALM 30.42R Swainsboro FAIR 63 61 94 SE3 30.40F Vidalia FAIR 63 63 100 CALM 30.39F FOG Eastman HAZE 58 52 80 CALM 30.42S VSB 1/4 Hazlehurst FAIR 64 64 100 S3 30.38S Alma CLOUDY 58 57 97 CALM 30.39S FOG Waycross MOCLDY 59 56 91 CALM 30.38F FOG Jesup FOG 59 55 88 CALM 30.39F VSB 1/4 Baxley FAIR 57 57 100 CALM 30.39S Brunswick FOG 55 55 100 CALM 30.40S VSB 1/2 Saint Simons FAIR 64 63 96 CALM 30.39S $$ SCZ027-028-034-036>038-045-046-048>050-GAZ119-141-230900- ...Lake and Supplemental Coastal Observations... STATION/POSITION TIME TEMP WIND PRES WAVE SWELL AIR SEA DIR/SP/G HT/PER HT/PER/DIR (UTC) (F) (DEG/KT/KT) (MB) (FT/S) (FT/S/D) Winyah Bay 0745 62 CALM 1030.0F Lake Murray 0730 64 220/ 4/ 5 1029.1R ACE Basin NERRS 0745 61 CALM 1030.0S Fort Pulaski 0800 62 62 100/ 2/ 4 1029.8 Sapelo Island 0800 61 110/ 3 1029.0 $$ ANZ835-935-AMZ111-154-330-350-352-354-370-450-454-472-230900- ...C-MAN and Buoy Observations... STATION/POSITION TIME TEMP WIND PRES WAVE SWELL AIR SEA DIR/SP/G HT/PER HT/PER/DIR (UTC) (F) (DEG/KT/KT) (MB) (FT/S) (FT/S/D) Buoy 41004 0810 69 68 50/ 2/ 4 1029.6 Buoy 41008 0750 64 59 50/ 4/ 4 1029.0F 3/10 3/130/10 Folly Beach CMAN 0800 63 110/ 6/ 6 1030.3F Capers Nearshore 0708 58 60 130/ 4/ 6 1029.8F Fripp Nearshore 0708 60 60 80/ 4/ 6 1028.6F STATION/POSITION TIME TEMP WIND PRES WAVE SWELL AIR SEA DIR/SP/G HT/PER HT/PER/DIR (UTC) (F) (DEG/KT/KT) (MB) (FT/S) (FT/S/D) 5E St. Marys GA 0800 65 N/A 3/10 2/ 90/17 Frying Pan Buoy 0810 71 71 240/ 2/ 2 1030.5 Buoy 41025 0810 65 74 350/ 10/ 12 1031.2 Cape Lookout NC 0800 340/ 1/ 2 1031.3F Buoy 41002 0750 72 73 130/ 6/ 8 1031.2F 5/ 8 5/100/ 8 Buoy 41010 NOT AVBL St Augustine FL 0800 69 68 90/ 4/ 5 1028.4F $$

USA.gov is the U.S. government's official web portal to all federal, state and local government web resources and services.